Lawrence, MA

10:22 AM EST on December 15, 2019 (GMT -0500)
Lawrence Municipal

Weather History for KLWM - November, 2019

Change the Weather History Date:

Saturday, November 16, 2019

  Actual Average Record
Temperature  
Mean Temperature 28 °F -  
Max Temperature 34 °F 49 °F 75 °F (1993)
Min Temperature 21 °F 31 °F 8 °F (1933)
Degree Days  
Heating Degree Days 38    
Moisture  
Dew Point 2 °F    
Average Humidity 34    
Maximum Humidity 52    
Minimum Humidity 22    
Precipitation  
Precipitation 0.00 in - - ()
Sea Level Pressure  
Sea Level Pressure 30.48 in    
Wind  
Wind Speed 10 mph (NNW)    
Max Wind Speed 15 mph    
Max Gust Speed 32 mph    
Visibility 10 miles    
Events      
Averages and records for this station are not official NWS values.
T = Trace of Precipitation, MM = Missing Value Source: NWS Daily Summary

Daily Weather History Graph

Daily Weather History Graph

Search for Another Location

Airport or City:

Astronomy

Nov. 16, 2019 Rise Set
Actual Time 6:37 AM EST 4:20 PM EST
Civil Twilight 6:06 AM EST 4:51 PM EST
Nautical Twilight 5:32 AM EST 5:25 PM EST
Astronomical Twilight 4:58 AM EST 5:58 PM EST
Moon 7:48 PM EST (11/16) 10:30 AM EST (11/16)
Length of Visible Light 10h 44m
Length of Day
9h 43m
Waning Gibbous, 82% of the Moon is Illuminated
Nov 16
Waning Gibbous
Nov 19
Last Quarter
Nov 26
New
Dec 4
First Quarter
Dec 12
Full

Hourly Weather History & Observations

Time (EST) Temp. Windchill Dew Point Humidity Pressure Visibility Wind Dir Wind Speed Gust Speed Precip Events Conditions
12:54 AM 34.0 °F 25.0 °F 18.0 °F 52% 30.26 in 10.0 mi NNW 12.7 mph 23.0 mph N/A   Partly Cloudy
1:54 AM 32.0 °F 24.2 °F 10.9 °F 42% 30.30 in 10.0 mi NNW 9.2 mph 23.0 mph N/A   Clear
2:54 AM 28.9 °F 17.7 °F 3.0 °F 33% 30.34 in 10.0 mi NNW 15.0 mph 32.2 mph N/A   Clear
3:54 AM 27.0 °F 15.6 °F -0.9 °F 30% 30.38 in 10.0 mi NNW 13.8 mph 21.9 mph N/A   Clear
4:54 AM 25.0 °F 14.8 °F 1.0 °F 36% 30.42 in 10.0 mi North 10.4 mph 19.6 mph N/A   Clear
5:54 AM 23.0 °F 13.9 °F 1.9 °F 40% 30.45 in 10.0 mi NNW 8.1 mph - N/A   Clear
6:54 AM 23.0 °F 11.7 °F 1.0 °F 39% 30.49 in 10.0 mi NNW 11.5 mph 18.4 mph N/A   Clear
7:54 AM 24.1 °F 15.2 °F 1.0 °F 37% 30.53 in 10.0 mi NNW 8.1 mph - N/A   Clear
8:54 AM 26.1 °F 16.2 °F 1.0 °F 34% 30.55 in 10.0 mi NW 10.4 mph - N/A   Clear
9:54 AM 28.0 °F 21.7 °F 1.0 °F 31% 30.54 in 10.0 mi NW 5.8 mph - N/A   Clear
10:54 AM 30.9 °F 23.5 °F 1.0 °F 28% 30.53 in 10.0 mi NW 8.1 mph - N/A   Clear
11:54 AM 33.1 °F 26.9 °F 1.0 °F 26% 30.52 in 10.0 mi Variable 6.9 mph - N/A   Clear
12:54 PM 34.0 °F 27.2 °F 3.0 °F 27% 30.50 in 10.0 mi WNW 8.1 mph - N/A   Clear
1:54 PM 34.0 °F 28.0 °F 1.0 °F 25% 30.49 in 10.0 mi WNW 6.9 mph - N/A   Clear
2:54 PM 33.1 °F 24.9 °F -2.0 °F 22% 30.48 in 10.0 mi WNW 10.4 mph - N/A   Clear
3:54 PM 30.9 °F 21.7 °F -2.9 °F 23% 30.49 in 10.0 mi NNW 11.5 mph - N/A   Clear
4:54 PM 28.0 °F 20.8 °F -2.9 °F 26% 30.51 in 10.0 mi North 6.9 mph - N/A   Clear
5:54 PM 28.0 °F 20.0 °F -2.9 °F 26% 30.53 in 10.0 mi North 8.1 mph - N/A   Clear
6:54 PM 26.1 °F 18.4 °F -2.0 °F 30% 30.53 in 10.0 mi North 6.9 mph - N/A   Clear
7:54 PM 25.0 °F 19.3 °F -0.0 °F 34% 30.54 in 10.0 mi NNW 4.6 mph - N/A   Clear
9:54 PM 23.0 °F 15.8 °F 3.9 °F 44% 30.55 in 10.0 mi NNW 5.8 mph - N/A   Clear
10:54 PM 21.0 °F 16.2 °F 5.0 °F 50% 30.55 in 10.0 mi WNW 3.5 mph - N/A   Clear
11:54 PM 21.0 °F 16.2 °F 5.0 °F 50% 30.54 in 10.0 mi NNW 3.5 mph - N/A   Clear